Regional Weather Roundup
Issued by NWS

Home | Current Version | Previous Version | Graphics & Text | Print | Product List | Glossary On
Versions: 1 2 3 4 5 6 7 8 9 10 11 12 13 14 15 16 17 18 19 20 21 22 23 24 25 26 27 28 29 30 31 32 33 34 35 36 37 38 39 40 41 42 43 44 45 46 47 48 49 50
000
ASUS43 KIND 182109
RWRIN

WEATHER ROUNDUP FOR INDIANA
NATIONAL WEATHER SERVICE INDIANAPOLIS IN
500 PM EDT FRI APR 18 2014

NOTE: "FAIR" INDICATES FEW OR NO CLOUDS BELOW 12,000 FEET WITH NO
SIGNIFICANT WEATHER AND/OR OBSTRUCTIONS TO VISIBILITY.

* - STATION DOES NOT REPORT WEATHER SUCH AS PRECIPITATION OR FOG.

+ - STATION NOT QUALITY CONTROLLED BY THE NATIONAL WEATHER SERVICE.
    USE DATA WITH CAUTION...ESPECIALLY DEWPOINT AND RELATIVE
    HUMIDITY OBSERVATIONS.

INZ001>003-010>013-019-020-182200-
NORTHWEST INDIANA

CITY           SKY/WX    TMP DP  RH WIND       PRES   REMARKS
GARY /AIRPORT/ MOSUNNY   45  34  65 N12       30.36S
LA PORTE +     SUNNY     50  36  57 N14       30.32S
MICHIGAN CITY+ SUNNY     43  32  65 N12       30.35S
MONTICELLO +   SUNNY     66  40  38 NW10      30.25F
RENSSELAER +   SUNNY     61  32  33 CALM      30.28F
VALPARAISO     SUNNY     51  35  54 N12       30.32S

$$

LMZ046-743>745-182200-
SOUTHERN LAKE MICHIGAN

STATION/POSITION TIME  TEMP WIND        PRES
                       AIR  DIR/SP/G
                 (UTC) (F)  (DEG/KT/KT) (MB)
MICHIGAN CITY    2100   38  360/ 14/ 17   N/A

$$

INZ004-005-014>016-021>024-182200-
NORTH CENTRAL INDIANA

CITY           SKY/WX    TMP DP  RH WIND       PRES   REMARKS
GOSHEN         SUNNY     63  36  36 NW13G22   30.26F
LOGANSPORT +   PTSUNNY   68  34  28 W8        30.26S
PERU/GRISSOM   MOSUNNY   68  41  38 N10G16    30.24F
ROCHESTER +    SUNNY     66  32  28 NW13      30.26F
SOUTH BEND     SUNNY     58  38  47 NW14      30.31F
WARSAW +       SUNNY     63  37  39 NW13      30.26S

$$

INZ006>009-017-018-025>027-182200-
NORTHEAST INDIANA

CITY           SKY/WX    TMP DP  RH WIND       PRES   REMARKS
ANGOLA *+      SUNNY     64  32  29 NW14      30.24S
AUBURN +       MOSUNNY   66  34  30 W13       30.24F
FORT WAYNE     MOSUNNY   69  38  32 W17G23    30.24F

$$

INZ028-029-035-036-043>045-051>053-182200-
WEST CENTRAL INDIANA

CITY           SKY/WX    TMP DP  RH WIND       PRES   REMARKS
GREENCASTLE +  SUNNY     68  39  34 NW6       30.24F
LAFAYETTE      MOSUNNY   66  38  35 N5        30.25F
TERRE HAUTE    SUNNY     70  41  34 MISG      30.23F

$$

INZ030>032-037>040-046>048-054>057-064-065-182200-
CENTRAL INDIANA

CITY           SKY/WX    TMP DP  RH WIND       PRES   REMARKS
CP ATTERBURY + PTSUNNY   68  36  30 CALM      30.23F
COLUMBUS       PTSUNNY   70  36  28 CALM      30.23F
INDIANAPOLIS   MOSUNNY   68  38  33 VRB5      30.23F
-EAGLE CREEK   MOSUNNY   68  39  34 N8        30.23F
KOKOMO *+        N/A     66  41  39 NW14      30.24F
MARION +       MOSUNNY   66  36  32 NW10G17   30.25F
MT COMFORT *+  MOSUNNY   70  41  35 NW9       30.23F
SHELBYVILLE    PTSUNNY   72  38  29 VRB7      30.22F
ZIONSVILLE +   MOSUNNY   68  35  29 W10       30.24F

$$

INZ033-034-041-042-049-050-058-059-182200-
EAST CENTRAL INDIANA

CITY           SKY/WX    TMP DP  RH WIND       PRES   REMARKS
MUNCIE         MOSUNNY   68  39  34 NW12      30.23F

$$

INZ060-061-067>069-081>083-085>088-182200-
SOUTHWEST INDIANA

CITY           SKY/WX    TMP DP  RH WIND       PRES   REMARKS
EVANSVILLE     SUNNY     73  37  27 MISG      30.22F
HUNTINGBURG *+ SUNNY     72  45  37 NW8       30.22F
WASHINGTON +   SUNNY     70  39  32 N3        30.22F

$$

INZ062-063-066-070>080-084-089>092-182200-
SOUTH CENTRAL AND SOUTHEAST INDIANA

CITY           SKY/WX    TMP DP  RH WIND       PRES   REMARKS
BEDFORD +      CLOUDY    70  30  23 N5        30.22
BLOOMINGTON    CLOUDY    70  37  29 N7        30.22F

$$




USA.gov is the U.S. government's official web portal to all federal, state and local government web resources and services.